Location: Alta
(39.2070°N, 120.8111°W)
Time: 02:03:38
(UTC+00:00)

Envisat - Visible Passes

Search period start: 13 March 2026 00:00
Search period end: 23 March 2026 00:00
Orbit: 761 x 763 km, 98.4° (Epoch: 12 March)

Date Brightness Start Highest point End Pass type
(mag) Time Alt. Az. Time Alt. Az. Time Alt. Az.
13 Mar 5.6 10:45:06 10° NNE 10:45:40 13° NNE 10:45:40 13° NNE visible
14 Mar 5.3 11:47:00 10° NNW 11:47:40 13° NNW 11:47:40 13° NNW visible
15 Mar 5.3 11:08:33 10° N 11:09:33 16° N 11:09:33 16° N visible
16 Mar 5.6 10:30:41 10° NNE 10:31:25 14° NNE 10:31:25 14° NNE visible
16 Mar 5.3 12:11:18 10° NNW 12:11:33 11° NNW 12:11:33 11° NNW visible
17 Mar 5.1 11:32:12 10° N 11:33:25 16° NNW 11:33:25 16° NNW visible
18 Mar 5.2 10:54:00 10° N 10:55:17 18° N 10:55:17 18° N visible
19 Mar 5.7 10:16:21 10° NNE 10:17:11 15° NNE 10:17:11 15° NNE visible
19 Mar 5.1 11:56:10 10° NNW 11:57:19 14° NNW 11:57:19 14° NNW visible
20 Mar 4.9 11:17:30 10° N 11:19:10 20° N 11:19:10 20° N visible
21 Mar 5.2 10:39:30 10° NNE 10:41:03 20° NNE 10:41:03 20° NNE visible
21 Mar 5.2 12:20:51 10° NW 12:21:11 11° NW 12:21:11 11° NW visible
22 Mar 5.7 10:02:06 10° NNE 10:02:55 14° NE 10:02:55 14° NE visible
22 Mar 4.8 11:41:16 10° NNW 11:43:04 19° NNW 11:43:04 19° NNW visible
